Zurück zum Katalog

ARIANE 2 DEB

LostGTO
NORAD 33554·DEBRIS·🇫🇷 France

Gestartet Jan 27, 1989 von Guiana Space Centre

Loading…

TLE

VeraltetSource: Space-Track

Epoche: Jan 2, 2017, 19:05 UTC

1 33554U 89006AW  17002.79542801  .00000055  00000-0  46792-3 0  9990
2 33554   8.2826 244.5850 7123993 150.6596 282.4252  2.35502851 95585

Verfolge ARIANE 2 DEB in Echtzeit mit AllMySat

Download on the App Store